DELTA 1 DEB, 10206

Orbit data source: Space-Track

DELTA 1 DEB, 10206 is space debris in LEO originally from a launch on Thu, 14 Jul 1977 UTC launched from the Air Force Eastern Test Range (AFETR). Debris objects in space refer to the collection of defunct objects orbiting the Earth. Examples of debris include non-operational satellites, rocket bodies, and fragments generated from explosions, collisions, or faulty payload assembly.

Loading next visibility...
Identifier
10206, 1977-065AK
Orbit
LEO
Country
Flag of USUS
Related business
Manufacturer
Unknown
Mission
Spacecraft
Bus & Motor
Unknown
Mass
Unknown
Launch date (UTC)
1977-07-14 (48 years ago)
Launch vehicle
Unknown
Launch site
Air Force Eastern Test Range (AFETR)
Object type
Payload
Rocket body
Debris
Shape & HBR
Unknown shape, 0.1 m
Radar Cross Section
Small (<0.1 m²)

Expand to show TLE details & history
Last TLE update: 17 hours ago

TLE from 17 hours ago
0 DELTA 1 DEB
1 10206U 77065AK  25351.42246489  .00001525  00000-0  11437-2 0  9990
2 10206  29.2044  92.2331 0524999 150.4581 212.6732 13.41214652290221
Epoch: 2025-12-17T10:08Z
TLE epoch observation values (Epoch: 2025-12-17T10:08:20.966Z)
Latitude
0.00002°
Longitude
-146.14678°
Altitude
1,439.455 km
Speed
6.982 km/s
True Right ascension
06h 08m 55s
True Declination
0° 00' 00"
Sunlit
Object was in full shadow at epoch
Visualization orbit readout
Latitude
Unknown
Longitude
Unknown
Altitude
Unknown
Speed
Unknown
Apparent Right ascension
Unknown
Apparent Declination
Unknown
Sunlit
N/A
Visualization observer readout
Local Sidereal Time
01:26:04
Azimuth
Unknown
Elevation
Unknown
Doppler factor
Unknown
Orbital elements
Apogee altitude
1,501.615 km
Perigee altitude
715.512 km
Semi-major axis
7,486.701 km
Eccentricity
0.0525
Inclination
29.2044°
RAAN
92.2331°
Arg. of periapsis
150.4581°
True anomaly
209.59727°
Mean anomaly
212.6732°
Eccentric anomaly
211.11862°
Mean motion
3.35048 °/min
Orbital period
107.45 mins
BSTAR
0.0011437
Loading maneuver chart data...
Computing Atmospheric mass density...

Documentation

Showing up to 5 results
|